CW8916 Weather Reports


Display with metric or nautical units.
time (UTC)temp
F
wind
direction
speed
MPH
gust
MPH
rain 1hr
in
rain 24hr
in
rain mn
in
humidity
%
barometer
mb
20260505062638 62 220 14.0 23.0 0.00 0.00 0.00 46 1008.2
20260505061617 62 187 15.0 29.0 0.00 0.00 0.00 48 1008.1
20260505060653 62 215 15.0 26.0 0.00 0.00 0.00 48 1008.1
20260505055615 63 221 18.0 30.0 0.00 0.00 0.00 45 1007.9
20260505054620 63 240 15.0 30.0 0.00 0.00 0.00 43 1007.8
20260505053627 64 229 16.0 25.0 0.00 0.00 0.00 40 1007.6
20260505052626 64 225 13.0 25.0 0.00 0.00 0.00 39 1007.6
20260505051625 62 198 11.0 21.0 0.00 0.00 0.00 42 1007.6
20260505050624 59 195 7.0 9.0 0.00 0.00 0.00 46 1007.6
20260505041614 61 145 3.0 9.0 0.00 0.00 0.00 43 1007.4
20260505040654 65 199 4.0 10.0 0.00 0.00 0.00 37 1007.3
20260505035646 65 217 6.0 11.0 0.00 0.00 0.00 37 1007.3
20260505034623 64 218 6.0 11.0 0.00 0.00 0.00 37 1007.1
20260505033621 64 217 7.0 9.0 0.00 0.00 0.00 38 1007.0
20260505032641 65 210 8.0 11.0 0.00 0.00 0.00 35 1006.8
20260505031621 64 227 6.0 11.0 0.00 0.00 0.00 38 1006.8
20260505030620 61 166 5.0 7.0 0.00 0.00 0.00 44 1006.7
20260505025629 61 167 5.0 10.0 0.00 0.00 0.00 46 1006.8
20260505024628 64 144 4.0 10.0 0.00 0.00 0.00 41 1006.7
20260505023625 63 211 6.0 7.0 0.00 0.00 0.00 43 1006.3
20260505022626 62 153 4.0 7.0 0.00 0.00 0.00 46 1006.3
20260505021625 64 143 4.0 6.0 0.00 0.00 0.00 42 1006.2
20260505020649 64 153 2.0 7.0 0.00 0.00 0.00 39 1006.1
20260505015623 64 204 3.0 7.0 0.00 0.00 0.00 38 1006.2
20260505014644 64 138 4.0 7.0 0.00 0.00 0.00 39 1006.2
20260505013621 65 122 3.0 6.0 0.00 0.00 0.00 38 1006.1
20260505012620 66 101 4.0 6.0 0.00 0.00 0.00 35 1006.2
20260505011621 67 56 3.0 9.0 0.00 0.00 0.00 32 1006.3
20260505010620 69 90 4.0 5.0 0.00 0.00 0.00 30 1006.4
20260505005627 69 244 3.0 10.0 0.00 0.00 0.00 29 1006.1
20260505004627 69 269 12.0 18.0 0.00 0.00 0.00 29 1006.3
20260505003651 69 314 18.0 25.0 0.00 0.00 0.00 28 1006.4
20260505002649 68 317 12.0 24.0 0.00 0.00 0.00 34 1006.7
20260505001626 68 312 16.0 26.0 0.00 0.00 0.00 34 1007.0
20260505000651 69 290 6.0 14.0 0.00 0.00 0.00 34 1006.8
20260504235620 69 360 14.0 21.0 0.00 0.00 0.00 34 1006.7
20260504234640 70 339 7.0 18.0 0.00 0.00 0.00 34 1006.7
20260504233638 73 336 14.0 24.0 0.00 0.00 0.00 28 1006.9
20260504232616 73 221 7.0 10.0 0.00 0.00 0.00 23 1006.6
20260504231616 74 229 6.0 9.0 0.00 0.00 0.00 24 1006.4
20260504230620 73 267 4.0 11.0 0.00 0.00 0.00 25 1006.5
20260504225627 73 300 10.0 13.0 0.00 0.00 0.00 25 1006.4
20260504224626 73 299 7.0 12.0 0.00 0.00 0.00 24 1006.4
20260504223626 73 291 5.0 7.0 0.00 0.00 0.00 27 1006.3
20260504222626 73 103 2.0 9.0 0.00 0.00 0.00 27 1006.3
20260504221625 71 270 6.0 9.0 0.00 0.00 0.00 34 1006.4
20260504220624 73 209 6.0 14.0 0.00 0.00 0.00 26 1006.5
20260504215637 74 127 5.0 10.0 0.00 0.00 0.00 26 1006.7
20260504214640 73 192 5.0 10.0 0.00 0.00 0.00 26 1006.9
20260504213619 73 127 5.0 10.0 0.00 0.00 0.00 27 1007.1
20260504212618 73 153 3.0 8.0 0.00 0.00 0.00 28 1007.2
20260504211617 74 56 2.0 9.0 0.00 0.00 0.00 29 1007.6
20260504210616 74 196 5.0 15.0 0.00 0.00 0.00 30 1007.7
20260504205615 72 355 4.0 6.0 0.00 0.00 0.00 31 1007.6
20260504204614 72 320 5.0 8.0 0.00 0.00 0.00 32 1007.7
20260504203619 72 268 0.0 3.0 0.00 0.00 0.00 31 1007.8
20260504202620 70 200 2.0 6.0 0.00 0.00 0.00 32 1007.9
20260504201640 70 24 6.0 10.0 0.00 0.00 0.00 33 1007.9
20260504200620 71 20 6.0 10.0 0.00 0.00 0.00 34 1008.0
20260504195634 70 30 4.0 10.0 0.00 0.00 0.00 33 1008.2
20260504194634 71 19 4.0 9.0 0.00 0.00 0.00 35 1008.1
20260504193632 70 32 5.0 9.0 0.00 0.00 0.00 34 1008.5
20260504192615 70 24 4.0 9.0 0.00 0.00 0.00 35 1008.6
20260504191614 69 311 4.0 10.0 0.00 0.00 0.00 35 1008.7
20260504190634 68 12 5.0 11.0 0.00 0.00 0.00 36 1009.0
20260504185646 68 5 6.0 11.0 0.00 0.00 0.00 37 1009.4
20260504184626 67 39 6.0 10.0 0.00 0.00 0.00 39 1009.5
20260504183626 67 341 2.0 8.0 0.00 0.00 0.00 40 1009.7
20260504182625 67 355 4.0 8.0 0.00 0.00 0.00 39 1009.7
20260504181623 67 5 5.0 8.0 0.00 0.00 0.00 41 1010.0
20260504180620 66 19 3.0 8.0 0.00 0.00 0.00 42 1010.2
20260504175614 65 338 7.0 10.0 0.00 0.00 0.00 41 1010.2
20260504174637 65 343 5.0 8.0 0.00 0.00 0.00 41 1010.3
20260504173615 64 264 3.0 7.0 0.00 0.00 0.00 41 1010.4
20260504172633 64 355 4.0 5.0 0.00 0.00 0.00 40 1010.5
20260504171632 63 304 1.0 6.0 0.00 0.00 0.00 41 1010.7
20260504170631 62 21 2.0 8.0 0.00 0.00 0.00 42 1010.7
20260504150615 54 328 2.0 5.0 0.00 0.00 0.00 46 1010.8
20260504140618 49 131 0.0 4.0 0.00 0.00 0.00 53 1011.2
20260504130632 47 70 2.0 4.0 0.00 0.00 0.00 52 1011.0
20260504110635 47 145 3.0 6.0 0.00 0.00 0.00 51 1010.5
20260504081615 52 136 4.0 9.0 0.00 0.00 0.00 41 1010.2
20260504080633 51 189 6.0 9.0 0.00 0.00 0.00 43 1010.3